Wind_Speed
24 24 24 24 23 22 21 20 19 21 22 22 23 24 25 25 25 25 26 26 26 26 25 24 24 24 24 23 23 22 22 21 21 21 21 22 22 23 24 25 26 27 28
25 25 25 25 24 24 23 22 22 23 24 26 28 28 29 29 30 30 30 30 31 31 30 29 29 28 27 27 26 25 25 24 24 24 24 25 26 27 28 28 29 31 32
27 27 26 25 26 26 25 25 24 26 29 30 31 32 33 33 33 34 34 34 34 34 33 31 33 32 31 31 30 29 29 28 27 27 28 29 30 31 32 33 34 36 37
29 29 29 28 28 29 29 29 30 31 33 34 34 35 36 36 36 37 37 36 34 34 34 34 35 35 34 32 32 32 32 31 31 31 32 33 34 35 36 38 39 41 42
30 30 31 32 31 32 33 33 34 35 36 36 37 38 40 40 39 39 39 38 38 38 38 38 37 38 37 37 37 36 35 34 34 36 37 38 39 40 41 42 44 46 47
31 32 33 34 35 35 35 36 36 37 38 39 39 40 41 42 41 41 41 41 40 40 39 39 40 39 40 40 39 38 39 38 38 40 41 43 44 46 47 47 48 49 51
34 34 35 36 36 36 37 37 38 38 39 40 41 41 42 42 42 43 43 41 40 40 41 42 42 42 42 41 41 41 42 42 43 45 46 47 49 50 51 52 53 54 55
37 37 37 37 38 39 39 39 39 40 41 42 42 42 41 41 42 42 42 41 41 41 42 43 44 43 43 43 44 45 45 46 47 49 50 51 52 53 54 56 56 57 58
37 38 38 39 40 41 42 42 42 42 42 42 42 42 42 42 42 42 43 42 43 44 44 45 45 44 45 45 47 48 49 50 51 53 53 54 56 57 58 59 59 59 59
39 38 38 40 42 42 43 43 42 42 42 42 42 42 42 42 42 42 43 44 45 46 47 48 48 49 49 50 52 53 53 54 54 54 56 58 59 60 61 61 61 61 61
37 39 40 41 41 42 43 43 43 42 42 42 42 41 42 42 43 44 45 47 48 49 49 51 52 53 53 54 56 56 57 57 58 59 60 60 61 61 61 61 61 61 61
35 37 38 40 42 42 42 42 42 41 41 41 41 42 43 43 44 45 47 48 49 51 52 54 55 56 57 57 58 59 59 60 61 61 61 61 61 61 61 60 60 60 60
36 37 38 38 39 40 40 40 40 41 41 41 41 42 43 45 46 48 50 51 53 55 56 57 57 58 58 59 59 60 61 61 62 62 62 62 61 61 60 60 59 59 58
34 34 34 35 36 37 37 38 39 39 40 41 42 43 45 46 48 50 52 53 54 56 57 57 57 58 59 60 60 60 61 61 61 61 61 61 61 60 59 58 58 57 56
32 31 31 31 33 34 35 36 37 39 39 40 41 43 45 47 49 51 52 53 54 55 56 56 57 58 58 59 59 60 60 60 60 60 60 59 58 58 57 56 55 54 54
28 28 29 29 31 32 32 34 35 36 38 39 41 43 44 46 47 48 49 50 50 52 53 54 55 56 57 58 58 58 58 57 57 57 56 55 54 54 53 53 52 51 50
26 25 25 25 27 29 30 32 34 36 37 38 39 40 41 43 45 46 47 48 49 50 51 53 54 55 55 55 55 55 55 54 54 53 52 50 49 48 48 47 47 46 45
25 25 26 27 27 28 29 31 32 33 35 36 38 39 40 42 43 44 46 47 48 49 50 51 52 52 52 51 52 51 51 49 48 47 46 45 44 44 42 41 40 39 36
24 25 25 25 26 27 29 30 32 33 35 36 37 39 40 41 42 43 45 46 47 48 48 48 48 48 48 48 47 47 45 44 42 41 40 38 37 36 34 32 30 28 26
23 23 24 24 25 26 27 29 31 32 34 35 36 37 38 40 41 42 43 44 44 44 44 45 45 45 44 44 42 40 38 37 36 34 32 30 28 26 24 22 20 19 17
21 22 23 23 24 25 26 28 29 30 31 32 34 35 36 37 38 39 39 39 40 40 40 40 39 39 38 37 35 34 32 31 29 26 24 22 19 18 16 14 13 12 11
20 21 21 22 23 24 24 25 26 27 28 29 30 31 32 33 34 34 34 34 34 33 34 33 32 32 30 29 27 26 25 23 21 18 16 14 12 10 10 9 8 7 7
18 19 20 21 21 22 22 23 24 25 26 27 28 29 30 30 30 30 29 28 28 29 28 27 26 24 23 21 20 19 17 15 12 10 9 7 6 6 6 6 6 6 6
17 17 18 18 19 19 20 21 22 24 25 25 25 26 26 26 26 26 25 25 25 24 23 23 21 19 17 16 14 12 9 8 6 5 4 4 5 5 5 6 6 6 6
15 15 15 16 17 18 19 20 21 21 21 21 21 22 23 23 23 23 22 22 21 20 19 18 17 14 12 11 9 7 6 5 5 5 5 6 7 7 7 8 8 8 8
13 13 14 15 15 16 17 17 18 18 18 19 20 20 20 20 20 20 19 18 17 16 15 14 13 11 10 9 8 7 7 7 8 8 9 9 9 9 9 9 9 10 10
Wind_Direction
247 247 250 252 253 258 262 265 270 270 274 278 280 284 286 284 282 284 287 288 288 288 288 292 292 292 293 298 301 302 302 302 303 303 300 298 296 292 290 287 285 284 282
246 249 253 255 256 258 264 268 270 272 275 277 280 283 285 284 283 284 286 287 286 287 285 287 289 287 288 290 293 295 296 296 297 296 294 294 293 291 289 287 286 285 284
250 254 256 260 262 264 268 270 271 273 276 277 279 279 281 281 281 282 283 285 286 286 285 286 288 287 286 285 287 291 293 293 293 292 292 291 291 290 289 287 286 285 284
253 257 259 261 264 266 267 269 273 274 276 277 278 280 282 281 281 281 282 284 286 286 287 287 287 286 286 287 287 290 293 290 290 290 290 289 289 289 288 287 286 284 284
252 257 261 263 265 266 268 270 273 274 276 278 278 278 280 280 280 281 282 282 283 285 285 286 286 287 286 288 288 289 290 290 290 290 289 288 288 287 287 285 284 284 283
250 255 259 263 265 267 269 271 273 274 275 276 277 278 279 280 280 279 279 280 281 282 284 286 287 287 288 288 288 288 289 290 290 289 288 288 288 287 286 285 283 283 283
252 255 258 261 264 266 268 269 271 274 276 275 276 277 277 277 276 277 277 279 280 282 284 285 284 286 287 287 287 288 289 289 288 288 287 287 287 286 286 285 284 284 283
250 254 257 260 262 265 267 269 272 275 275 276 276 276 275 275 276 277 278 279 281 283 283 284 284 285 286 286 286 288 288 288 288 288 288 287 286 286 286 286 285 284 284
249 252 254 257 261 265 267 270 272 274 275 275 275 275 275 276 276 277 279 280 281 281 282 283 284 285 286 287 288 288 287 288 289 288 288 288 287 287 287 287 286 285 285
250 252 256 256 261 264 266 269 271 272 273 273 273 273 274 275 276 276 278 279 279 282 284 285 285 286 286 287 288 289 289 290 289 289 288 288 288 288 288 288 287 286 285
253 254 257 258 260 263 265 267 268 270 270 271 271 272 273 275 276 277 278 279 281 281 283 284 284 287 287 287 289 289 290 289 289 289 289 289 289 289 288 287 286 285 285
259 260 261 259 260 262 265 266 267 269 269 270 270 272 274 275 277 278 279 281 282 283 285 286 287 288 288 287 289 290 290 290 290 290 289 289 289 288 288 287 286 286 286
266 264 262 262 264 263 263 265 266 267 267 269 270 272 273 275 277 279 281 282 283 284 285 285 286 287 287 287 288 289 290 290 290 290 289 289 289 289 288 287 287 286 286
273 269 264 263 264 263 262 264 266 266 268 269 270 271 274 277 279 280 282 283 283 284 284 284 285 286 288 289 289 289 290 290 290 289 289 289 289 288 288 287 287 287 287
275 271 269 270 270 268 265 266 268 268 269 270 272 274 276 278 280 281 282 282 283 283 284 286 287 288 289 289 290 289 289 290 290 290 289 289 288 288 287 287 287 287 287
276 271 271 273 270 268 270 272 272 271 273 276 277 277 278 279 281 282 284 285 286 286 287 288 289 289 290 290 290 290 290 290 290 289 289 289 289 289 288 287 287 287 288
278 277 277 280 277 274 274 274 275 276 277 279 279 281 283 284 285 286 288 288 288 289 289 289 289 289 290 290 290 290 290 290 290 290 290 289 289 290 290 289 289 289 290
280 282 285 287 285 283 281 280 280 280 281 283 285 288 288 289 289 289 289 290 290 290 290 290 290 291 290 290 291 291 291 291 291 291 291 290 290 291 291 291 291 292 292
287 287 286 287 286 285 283 283 283 285 286 287 288 288 290 290 291 291 292 293 293 293 293 292 292 291 292 292 292 292 292 292 291 291 292 292 292 293 294 295 294 294 294
287 286 287 287 287 288 287 287 287 288 289 291 291 292 293 293 293 294 295 295 295 295 294 294 293 293 293 293 293 293 293 293 293 293 293 294 295 296 298 299 299 299 300
286 285 287 289 289 289 290 290 291 292 293 294 295 295 296 297 298 299 299 299 298 298 297 297 296 296 295 295 295 295 295 295 295 295 296 297 300 302 304 306 308 311 314
287 288 289 291 290 290 291 292 295 297 297 298 299 300 302 303 303 303 303 303 303 303 303 303 302 301 301 300 299 299 299 299 298 299 302 304 308 312 318 323 328 333 337
290 290 291 291 292 294 295 297 298 300 301 303 304 305 306 307 308 308 309 308 309 309 310 310 309 309 308 307 305 305 305 304 305 309 314 319 328 339 349 355 359 2 6
292 293 294 296 298 299 299 300 301 303 305 307 309 311 313 314 315 315 315 315 316 317 318 319 319 319 320 320 320 321 325 329 335 342 354 7 18 28 33 34 34 32 28
298 298 299 301 302 302 303 304 307 309 310 312 315 318 320 321 321 321 321 322 323 326 328 329 332 335 339 343 349 356 4 17 33 44 50 57 64 68 64 56 49 43 37
305 306 306 306 307 308 309 311 313 314 315 316 319 322 325 326 328 329 331 331 333 336 340 345 351 358 5 12 20 31 45 57 61 67 73 75 76 72 65 56 48 40 34
Height
5864 5866 5868 5869 5870 5871 5872 5873 5873 5874 5874 5873 5872 5871 5871 5870 5869 5868 5866 5865 5863 5861 5860 5859 5858 5856 5855 5853 5852 5850 5849 5847 5845 5843 5841 5839 5836 5834 5832 5830 5828 5826 5824
5859 5861 5863 5863 5864 5865 5866 5868 5868 5868 5867 5867 5866 5865 5864 5863 5862 5861 5859 5857 5855 5854 5852 5852 5850 5849 5847 5846 5845 5844 5842 5841 5839 5837 5835 5833 5831 5828 5826 5823 5821 5819 5816
5854 5855 5856 5858 5859 5859 5861 5862 5861 5861 5861 5861 5859 5858 5856 5855 5854 5852 5851 5849 5847 5846 5845 5844 5843 5841 5839 5838 5837 5836 5835 5833 5832 5830 5828 5826 5824 5821 5819 5816 5813 5810 5807
5849 5850 5852 5853 5854 5854 5854 5855 5855 5856 5855 5854 5853 5851 5849 5847 5846 5844 5842 5840 5839 5838 5837 5835 5834 5833 5830 5829 5828 5827 5826 5825 5823 5821 5819 5817 5815 5812 5810 5807 5804 5800 5797
5843 5844 5845 5847 5848 5848 5848 5848 5848 5848 5848 5846 5844 5843 5841 5839 5838 5836 5835 5833 5831 5829 5827 5826 5825 5823 5821 5820 5819 5818 5817 5815 5814 5812 5810 5807 5805 5802 5800 5797 5793 5790 5786
5837 5838 5838 5839 5840 5840 5840 5840 5840 5841 5840 5838 5836 5835 5833 5831 5829 5828 5826 5825 5822 5821 5819 5817 5816 5814 5812 5811 5810 5808 5807 5805 5803 5801 5799 5796 5793 5791 5788 5784 5781 5777 5773
5830 5831 5831 5832 5832 5832 5832 5832 5832 5832 5831 5829 5828 5826 5825 5823 5821 5819 5816 5815 5814 5812 5810 5808 5807 5805 5803 5802 5800 5798 5796 5794 5792 5789 5786 5783 5780 5777 5774 5771 5767 5764 5759
5822 5823 5824 5824 5824 5824 5824 5823 5823 5823 5822 5821 5820 5818 5816 5815 5813 5811 5807 5805 5804 5803 5801 5798 5797 5795 5793 5791 5788 5786 5784 5782 5779 5776 5773 5770 5766 5763 5759 5756 5752 5748 5744
5813 5814 5815 5816 5816 5816 5816 5816 5815 5814 5813 5813 5811 5810 5807 5806 5805 5803 5800 5797 5795 5794 5791 5789 5786 5784 5782 5779 5777 5775 5772 5769 5766 5763 5759 5755 5751 5747 5743 5740 5736 5733 5729
5805 5805 5805 5806 5807 5807 5807 5806 5806 5805 5804 5803 5802 5800 5799 5797 5796 5794 5791 5789 5786 5783 5781 5778 5776 5772 5769 5767 5765 5762 5758 5755 5751 5747 5744 5740 5736 5731 5727 5723 5719 5715 5712
5796 5796 5796 5796 5796 5797 5797 5797 5796 5795 5795 5794 5792 5791 5789 5788 5786 5784 5782 5779 5776 5773 5770 5767 5763 5760 5757 5754 5751 5747 5744 5740 5736 5732 5728 5724 5719 5715 5710 5706 5701 5697 5693
5786 5786 5787 5787 5787 5788 5788 5787 5787 5786 5785 5784 5783 5781 5779 5778 5776 5773 5771 5768 5765 5762 5758 5755 5751 5748 5744 5741 5737 5733 5729 5725 5720 5716 5711 5707 5703 5698 5693 5689 5684 5680 5676
5777 5777 5778 5778 5778 5778 5778 5777 5777 5776 5775 5774 5773 5771 5769 5768 5765 5763 5760 5757 5754 5750 5746 5743 5739 5734 5730 5726 5722 5718 5713 5709 5704 5700 5695 5690 5686 5681 5676 5672 5668 5663 5659
5769 5768 5768 5768 5768 5768 5768 5768 5767 5767 5766 5764 5763 5761 5759 5757 5754 5752 5749 5745 5742 5738 5734 5730 5725 5720 5716 5711 5707 5702 5697 5692 5688 5683 5678 5673 5669 5664 5660 5655 5651 5647 5643
5761 5761 5760 5759 5759 5758 5758 5758 5758 5757 5756 5754 5753 5750 5748 5745 5743 5740 5736 5733 5729 5725 5720 5716 5711 5706 5701 5696 5691 5686 5681 5676 5671 5666 5662 5657 5652 5647 5643 5639 5635 5631 5628
5754 5752 5751 5750 5750 5750 5750 5749 5749 5747 5746 5744 5742 5740 5737 5734 5731 5728 5724 5720 5716 5711 5707 5702 5697 5691 5686 5681 5675 5670 5665 5660 5655 5650 5646 5641 5636 5632 5627 5624 5620 5617 5613
5745 5745 5744 5743 5743 5742 5741 5740 5739 5738 5736 5734 5731 5729 5726 5723 5719 5716 5712 5707 5703 5698 5693 5688 5682 5677 5671 5666 5661 5655 5650 5645 5640 5636 5631 5626 5622 5618 5614 5610 5606 5603 5600
5738 5737 5737 5736 5735 5734 5733 5732 5730 5728 5726 5723 5721 5718 5715 5712 5708 5704 5699 5695 5690 5685 5680 5674 5669 5663 5657 5651 5646 5641 5636 5631 5627 5622 5618 5614 5610 5606 5602 5599 5595 5592 5590
5731 5730 5729 5728 5727 5726 5724 5723 5721 5719 5716 5713 5710 5707 5704 5700 5696 5691 5687 5682 5677 5672 5666 5660 5655 5649 5643 5638 5633 5628 5623 5619 5615 5611 5607 5603 5600 5596 5593 5590 5587 5584 5582
5724 5723 5722 5721 5719 5718 5716 5714 5712 5709 5706 5703 5700 5697 5693 5689 5684 5679 5674 5669 5664 5658 5653 5647 5642 5636 5630 5626 5621 5616 5612 5608 5604 5601 5598 5594 5592 5589 5586 5584 5581 5579 5577
5717 5716 5715 5713 5712 5710 5708 5706 5704 5701 5698 5695 5691 5687 5683 5678 5673 5668 5663 5657 5652 5647 5641 5636 5630 5624 5619 5615 5610 5607 5603 5599 5596 5593 5591 5588 5586 5584 5582 5580 5578 5576 5574
5711 5710 5708 5707 5705 5703 5701 5699 5696 5693 5690 5686 5682 5678 5674 5669 5664 5659 5653 5648 5642 5637 5632 5626 5621 5615 5610 5606 5602 5599 5595 5592 5590 5588 5586 5584 5583 5581 5580 5578 5576 5575 5574
5705 5704 5702 5700 5698 5696 5694 5692 5689 5686 5682 5678 5674 5670 5665 5660 5655 5650 5645 5640 5635 5629 5624 5619 5614 5609 5604 5600 5596 5593 5590 5588 5586 5585 5584 5583 5581 5580 5579 5578 5576 5575 5574
5700 5698 5696 5695 5693 5690 5688 5685 5682 5679 5675 5671 5667 5663 5658 5653 5648 5643 5638 5633 5628 5623 5618 5613 5609 5604 5600 5596 5593 5590 5588 5586 5585 5584 5583 5582 5581 5580 5580 5579 5577 5576 5575
5695 5693 5691 5690 5687 5685 5682 5680 5676 5673 5669 5666 5662 5657 5652 5648 5643 5638 5633 5629 5624 5619 5615 5610 5606 5602 5598 5595 5592 5590 5588 5587 5586 5585 5584 5584 5583 5582 5581 5580 5579 5578 5576
5691 5689 5687 5685 5683 5680 5677 5674 5671 5668 5664 5661 5657 5652 5648 5643 5639 5634 5630 5625 5621 5617 5613 5609 5605 5602 5599 5596 5593 5591 5590 5589 5588 5587 5587 5586 5585 5584 5584 5582 5581 5579 5578